STARLINK-37435, 69265

Orbit data source: Space-Track

STARLINK-37435, 69265 is a payload satellite owned by SpaceX/Seattle (US) in LEO that was launched on Fri, 29 May 2026 UTC via an FALCON 9 launch vehicle from the Air Force Eastern Test Range (AFETR). Payload-class satellites include a variety of spacecraft equipped with specific instruments for various scientific and technological missions. These include communications satellites like Starlink; space stations such as the ISS; scientific satellites like the Hubble; Earth observation satellites from companies like Planet Labs, Umbra, and HawkEye 360; GPS; miniature CubeSats for education and research; and military/defense satellites.

Not visible in the next 10 days
Identifier
69265, 2026-117AD
Orbit
LEO
Country
Flag of USUS
Related business
Manufacturer
SpaceX/Seattle
Mission
Operational spacecraft
Bus & Motor
STARLINK V2MO, Unknown motor
Mass
575 kg wet, ~530 kg dry
Launch date (UTC)
2026-05-29 (3 weeks ago)
Launch vehicle
FALCON 9
Launch site
Air Force Eastern Test Range (AFETR)
Object type
Payload
Rocket body
Debris
Shape & HBR
Unknown
Radar Cross Section
Large (>1 m²)

Expand to show TLE details & history
Last TLE update: 5 hours ago

TLE from 5 hours ago
0 STARLINK-37435
1 69265U 26117AD  26168.83335647 -.00026009  00000-0 -12855-3 0  9990
2 69265  53.1571 239.6434 0001100  71.3689  31.4177 15.80885068  4285
Epoch: 2026-06-17T20:00Z
TLE epoch observation values (Epoch: 2026-06-17T20:00:01.999Z)
Latitude
51.45232°
Longitude
144.31346°
Altitude
333.435 km
Speed
7.715 km/s
True Right ascension
23h 21m 37s
True Declination
51° 16' 26"
Sunlit
Object was in daylight at epoch
Visualization orbit readout
Latitude
Unknown
Longitude
Unknown
Altitude
Unknown
Speed
Unknown
Apparent Right ascension
Unknown
Apparent Declination
Unknown
Sunlit
N/A
Visualization observer readout
Local Sidereal Time
11:54:03
Azimuth
Unknown
Elevation
Unknown
Doppler factor
Unknown
Orbital elements
Apogee altitude
328.937 km
Perigee altitude
327.461 km
Semi-major axis
6,706.336 km
Eccentricity
0.00011
Inclination
53.1571°
RAAN
239.6434°
Arg. of periapsis
71.3689°
True anomaly
31.42427°
Mean anomaly
31.4177°
Eccentric anomaly
31.42099°
Mean motion
3.95198 °/min
Orbital period
91.09 mins
BSTAR
-0.00012855
Loading maneuver chart data...
Computing Atmospheric mass density...
Loading historical data...
Loading historical data...
Loading historical data...
Loading historical data...
Loading historical data...
Loading historical data...
Loading historical data...

Documentation

Showing up to 5 results
|